Location: Colonia Mina de C?rbuni
(46.1667°N, 22.7167°E)
Time: 14:55:09
(UTC+00:00)

Courier 1B - Pass Details

Date: 01 May 2024
Orbit: 962 x 1208 km, 28.3° (Epoch: 23 May)

Event Time Altitude Azimuth Distance (km) Brightness Sun altitude
Rises 19:43:53 0° 220° (SW) 4,054 10.6 -18.4°
Reaches altitude 10° 19:47:58 10° 200° (SSW) 3,119 9.8 -18.8°
Enters shadow 19:49:46 14° 187° (S) 2,851 9.5 -19.0°
Maximum altitude 19:52:21 16° 165° (SSE) 2,698 - -19.3°
Drops below altitude 10° 19:56:45 10° 131° (SE) 3,140 - -19.8°
Sets 20:00:54 0° 111° (ESE) 4,095 - -20.3°
